IRIDIUM 33 DEB, 34097

Orbit data source: Space-Track

IRIDIUM 33 DEB, 34097 is space debris in LEO originally from a launch on Sun, 14 Sep 1997 UTC launched from the Tyuratam Missile And Space Complex (TTMTR). The debris from Iridium 33, an American commercial communications satellite, has been tracked extensively since its accidental collision with the defunct Russian satellite Cosmos 2251 in 2009. This event, occurring at high speed in low Earth orbit (LEO), generated thousands of pieces of space debris, significantly increasing the risk of further collisions. The Iridium 33 debris cloud has impacted space traffic management and orbital debris mitigation strategies, making it a subject of ongoing study in space situational awareness.

Loading next visibility...
Identifier
34097, 1997-051DG
Orbit
LEO
Country
Flag of USUS
Related business
Manufacturer
Unknown
Mission
Spacecraft
Bus & Motor
Unknown
Mass
Unknown
Launch date (UTC)
1997-09-14 (29 years ago)
Launch vehicle
Unknown
Launch site
Tyuratam Missile And Space Complex (TTMTR)
Object type
Payload
Rocket body
Debris
Shape & HBR
Unknown shape, 0.1 m
Radar Cross Section
Medium (>0.1 m² and <1 m²)

Expand to show TLE details & history
Last TLE update: 18 hours ago

TLE from 18 hours ago
0 IRIDIUM 33 DEB
1 34097U 97051DG  26208.59702934  .00001192  00000-0  38780-3 0  9994
2 34097  86.1958 261.1066 0078866 341.8656  17.9730 14.36265544903742
Epoch: 2026-07-27T14:19Z
TLE epoch observation values (Epoch: 2026-07-27T14:19:43.334Z)
Latitude
-0.00004°
Longitude
100.89771°
Altitude
720.317 km
Speed
7.523 km/s
True Right ascension
17h 24m 25s
True Declination
0° 00' 00"
Sunlit
Object was in full shadow at epoch
Visualization orbit readout
Latitude
Unknown
Longitude
Unknown
Altitude
Unknown
Speed
Unknown
Apparent Right ascension
Unknown
Apparent Declination
Unknown
Sunlit
N/A
Visualization observer readout
Local Sidereal Time
22:03:06
Azimuth
Unknown
Elevation
Unknown
Doppler factor
Unknown
Orbital elements
Apogee altitude
824.187 km
Perigee altitude
711.472 km
Semi-major axis
7,145.966 km
Eccentricity
0.00789
Inclination
86.1958°
RAAN
261.1066°
Arg. of periapsis
341.8656°
True anomaly
18.2545°
Mean anomaly
17.973°
Eccentric anomaly
18.11349°
Mean motion
3.59295 °/min
Orbital period
100.2 mins
BSTAR
0.0003878
Loading maneuver chart data...
Computing Atmospheric mass density...

Documentation

Showing up to 5 results
|